[[{"header":{"parameterUnit":"m.s-1","parameterCategory":1,"la1":30.2991,"la2":30.254,"lo1":-89.0895,"lo2":-89.0444,"dy":0.0017,"dx":0.0017,"nx":28,"ny":28,"refTime":"2023-09-23T21:00:00:Z","depth":0,"parameterNumber":2,"parameterNumberName":"U-component_of_WINDS"},"data":[0,0,0,0,0,0,0,0,0,0,0,0,0,0,0,0,0,0,0,0,0,0,0,0,0,0,0,0,0,0,0,0,0,0,0,0,0,0,0,0,0,0,0,0,0,0,0,0,0,0,0,0,0,0,0,0,0,0,1.9463,1.9464,0,1.9548,1.9549,1.955,1.9542,1.9541,1.9539,1.9538,1.9622,1.9625,1.9628,0,0,0,0,0,0,0,0,0,0,0,0,0,1.9288,1.9292,1.9463,1.9464,1.9465,1.9548,1.9549,1.9551,1.9542,1.9541,1.9539,1.9538,1.962,1.9625,1.9629,0,0,0,0,0,0,0,0,0,0,0,0,0,1.9368,1.9293,1.9463,1.9471,1.9473,1.9548,1.9549,1.9551,1.9543,1.9541,1.9539,1.9537,1.9619,1.9624,1.9629,1.97,0,0,1.9645,1.9647,0,0,0,0,0,0,0,0,1.9363,1.9374,1.9469,1.9471,1.9473,1.9533,1.9518,1.9601,1.9543,1.9516,1.9538,1.9536,1.9593,1.96,1.9621,1.9704,1.9708,1.9645,1.9649,1.9651,1.9652,0,0,0,0,0,0,0,1.9358,1.9371,1.9497,1.947,1.9473,1.9469,1.9478,1.9534,1.9564,1.9518,1.9518,1.9528,1.9594,1.9616,1.9623,1.9709,1.9645,1.965,1.9653,1.9655,1.9852,1.9854,0,0,0,0,0,0,1.9351,1.9366,1.9494,1.9499,1.9412,1.9474,1.9484,1.9515,1.9564,1.957,1.953,1.9528,1.9608,1.9617,1.9625,1.9709,1.9651,1.9656,1.9659,1.985,1.9852,1.9854,0,0,0,0,0,0,1.9347,1.9363,1.9491,1.9433,1.9449,1.9479,1.9514,1.9518,1.954,1.9573,1.9578,1.9547,1.9607,1.9618,1.9681,1.9712,1.9658,1.9663,1.9847,1.985,1.9853,1.9879,0,0,0,0,0,0,1.9342,1.9361,1.939,1.9433,1.9452,1.9547,1.9516,1.9521,1.9549,1.9547,1.959,1.9595,1.9606,1.9674,1.9686,1.9718,1.9667,1.9844,1.9849,1.9852,1.9875,1.9882,1.9888,0,0,0,0,0,1.9336,1.9394,1.9391,1.9407,1.9489,1.9548,1.9559,1.9571,1.9552,1.958,1.96,1.9594,1.9707,1.968,1.9695,1.9728,1.9842,1.9847,1.9852,1.9872,1.9881,1.9888,0,0,0,0,0,0,1.9352,1.94,1.9398,1.9471,1.9506,1.9547,1.9583,1.9581,1.9621,1.9617,1.963,1.9639,1.9702,1.9722,1.9691,1.9798,1.9772,1.978,1.9782,1.9791,1.9797,1.979,1.9671,0,0,0,0,0,1.9365,1.9411,1.9449,1.951,1.9528,1.9552,1.9579,1.9586,1.9621,1.9636,1.9661,1.9695,1.9738,1.9766,1.9808,1.9879,1.9886,1.9909,1.9915,1.9921,1.9926,1.9962,1.9971,1.987,1.987,1.987,0,0,1.939,1.9421,1.945,1.9514,1.9542,1.9587,1.9565,1.9614,1.9647,1.9643,1.9703,1.9723,1.9762,1.9828,1.9859,1.9847,1.9956,1.9927,1.9931,1.9934,1.9968,1.9977,1.9986,1.9873,1.9873,1.9872,0,0,1.9459,1.9489,1.9541,1.9569,1.9612,1.9627,1.964,1.9681,1.9694,1.9756,1.9752,1.9791,1.9866,1.9893,1.9916,1.9993,1.9987,2.0007,2.004,2.0075,2.0082,2.009,2.0114,2.0123,2.0013,2.0013,2.0013,0,1.9484,1.9554,1.9568,1.9618,1.9645,1.9644,1.9696,1.9722,1.9775,1.9793,1.9779,1.9871,1.9897,1.9968,1.9987,2.0007,2.0019,2.0,2.0081,2.0088,2.0094,2.0118,2.0127,2.0015,2.0014,2.0014,2.0014,0,1.9582,1.963,1.9667,1.9719,1.975,1.9801,1.9821,1.9851,1.9854,1.9871,1.9931,1.9963,2.0009,2.0027,2.0032,2.0098,2.0089,2.0078,2.0051,2.0106,2.0127,2.0137,2.0017,2.0017,2.0016,2.0016,0,0,1.9662,1.972,1.9733,1.9755,1.9802,1.9838,1.9888,1.9934,1.9958,1.9995,2.0034,2.0097,2.0086,2.0113,2.012,2.0151,2.0205,2.0135,2.0136,2.0144,2.0277,2.0282,2.0293,2.0203,2.0205,2.0206,2.0272,0,1.9733,1.9821,1.9835,1.9911,1.9954,1.9953,1.9996,2.0028,2.0044,2.0082,2.01,2.0142,2.0127,2.0142,2.0173,2.0192,2.0231,2.0188,2.0237,2.0238,2.0224,2.0305,2.0311,2.0372,2.0281,2.0283,2.0284,0,1.9827,1.9866,1.9947,1.9985,2.0003,2.0042,2.0083,2.012,2.0155,2.0165,2.0194,2.0197,2.0245,2.0219,2.0284,2.0254,2.0275,2.0288,2.029,2.0293,2.0262,2.0306,2.0392,2.04,2.0298,2.0297,2.0296,0,1.9873,1.9946,2.0003,2.0023,2.0069,2.0095,2.0116,2.0149,2.0175,2.0212,2.0228,2.027,2.0292,2.0323,2.0336,2.0317,2.04,2.0375,2.0406,2.0406,2.0422,2.042,2.0509,2.0441,2.044,2.044,2.044,0,1.9948,1.9997,2.0024,2.0059,2.0112,2.0127,2.0179,2.0199,2.0228,2.0265,2.0268,2.0302,2.0319,2.0355,2.0366,2.0416,2.0427,2.0434,2.0436,2.0432,2.0431,2.0444,2.0439,2.0443,2.0442,2.0442,2.0441,0,2.0008,2.0028,2.009,2.0129,2.014,2.0177,2.021,2.0242,2.0259,2.0305,2.0317,2.0342,2.0384,2.0401,2.0454,2.046,2.0517,2.0518,2.0506,2.0505,2.0534,2.053,2.0633,2.0645,2.0571,2.0572,2.0572,0,2.0053,2.009,2.0133,2.0159,2.018,2.0221,2.0247,2.0263,2.029,2.0332,2.0358,2.0401,2.0436,2.0503,2.0525,2.0564,2.0563,2.0596,2.0569,2.0563,2.0559,2.0556,2.0558,2.06,2.0601,2.0602,2.0602,0,2.013,2.0138,2.0177,2.0219,2.025,2.0284,2.0316,2.0337,2.0357,2.0387,2.043,2.0457,2.051,2.0551,2.0592,2.061,2.0609,2.0611,2.062,2.0615,2.0605,2.0607,2.0516,2.0608,2.0607,2.0607,2.0607,2.0606,2.0182,2.0214,2.0248,2.0291,2.0317,2.0347,2.0378,2.0399,2.0436,2.048,2.0487,2.0533,2.0565,2.0619,2.0639,2.0674,2.0665,2.0679,2.0681,2.0684,2.0684,2.0602,2.0682,2.0682,2.0682,2.0681,2.0681,0,2.0256,2.0278,2.0317,2.0362,2.0395,2.0393,2.0428,2.0455,2.0495,2.0526,2.056,2.0609,2.0648,2.0673,2.0712,2.0735,2.0735,2.0745,2.0741,2.0745,2.0691,2.0678,2.0744,2.0744,2.0744,2.0744,2.0744,2.0744,2.0299,2.0352,2.0363,2.0428,2.045,2.0495,2.0515,2.0542,2.0566,2.0621,2.0654,2.067,2.0697,2.0739,2.0774,2.078,2.0793,2.0803,2.0807,2.0756,2.0749,2.0743,2.0731,2.0806,2.0806,2.0858,2.0858,2.0859]},{"header":{"parameterUnit":"m.s-1","parameterCategory":1,"la1":30.2991,"la2":30.254,"lo1":-89.0895,"lo2":-89.0444,"dy":0.0017,"dx":0.0017,"nx":28,"ny":28,"refTime":"2023-09-23T21:00:00:Z","depth":0,"parameterNumber":3,"parameterNumberName":"V-component_of_WINDS"},"data":[0,0,0,0,0,0,0,0,0,0,0,0,0,0,0,0,0,0,0,0,0,0,0,0,0,0,0,0,0,0,0,0,0,0,0,0,0,0,0,0,0,0,0,0,0,0,0,0,0,0,0,0,0,0,0,0,0,0,1.3979,1.3979,0,1.4018,1.4018,1.4019,1.4012,1.4011,1.401,1.401,1.4047,1.4049,1.405,0,0,0,0,0,0,0,0,0,0,0,0,0,1.3893,1.3895,1.3979,1.3979,1.398,1.4018,1.4018,1.4019,1.4012,1.4011,1.401,1.4009,1.4047,1.4048,1.405,0,0,0,0,0,0,0,0,0,0,0,0,0,1.3931,1.3896,1.3978,1.3981,1.3981,1.4018,1.4018,1.4019,1.4012,1.4011,1.401,1.4009,1.4046,1.4048,1.4051,1.4086,0,0,1.4058,1.4059,0,0,0,0,0,0,0,0,1.3929,1.3934,1.398,1.3981,1.3981,1.4009,1.4002,1.4041,1.4012,1.4,1.401,1.4009,1.4035,1.4038,1.4048,1.4088,1.409,1.4058,1.406,1.4061,1.4062,0,0,0,0,0,0,0,1.3926,1.3933,1.3994,1.3981,1.3981,1.3978,1.3983,1.4009,1.4023,1.4001,1.4001,1.4006,1.4035,1.4045,1.4049,1.409,1.4058,1.406,1.4062,1.4063,1.416,1.4161,0,0,0,0,0,0,1.3924,1.393,1.3993,1.3995,1.3952,1.3981,1.3986,1.4001,1.4023,1.4025,1.4007,1.4005,1.4042,1.4046,1.405,1.4092,1.4061,1.4063,1.4065,1.4158,1.416,1.4161,0,0,0,0,0,0,1.3922,1.3929,1.3991,1.3963,1.397,1.3983,1.4001,1.4002,1.4013,1.4027,1.4029,1.4015,1.4041,1.4046,1.4077,1.4093,1.4064,1.4067,1.4157,1.4159,1.416,1.4177,0,0,0,0,0,0,1.3919,1.3929,1.3944,1.3963,1.3972,1.4019,1.4002,1.4004,1.4017,1.4016,1.4035,1.4037,1.4041,1.4073,1.408,1.4096,1.4068,1.4156,1.4158,1.416,1.4175,1.4179,1.4182,0,0,0,0,0,1.3916,1.3946,1.3944,1.3952,1.3991,1.402,1.4025,1.4029,1.4019,1.4033,1.4041,1.4036,1.409,1.4077,1.4083,1.4101,1.4155,1.4157,1.416,1.4173,1.4178,1.4182,0,0,0,0,0,0,1.3928,1.3949,1.3947,1.3984,1.4,1.4019,1.4037,1.4034,1.4053,1.4051,1.4055,1.4059,1.409,1.4098,1.4083,1.4135,1.4121,1.4125,1.4129,1.4133,1.4137,1.4134,1.407,0,0,0,0,0,1.3934,1.3957,1.3974,1.4006,1.4014,1.4024,1.4037,1.4039,1.4055,1.4062,1.4073,1.4088,1.4108,1.4121,1.4141,1.4176,1.4179,1.4191,1.4195,1.4197,1.4201,1.4218,1.4223,1.4169,1.4169,1.4169,0,0,1.3949,1.3963,1.3977,1.4008,1.4021,1.4043,1.403,1.4054,1.407,1.4065,1.4095,1.4103,1.412,1.4153,1.4168,1.4161,1.4216,1.4201,1.4203,1.4204,1.4221,1.4226,1.4231,1.4171,1.417,1.417,0,0,1.3986,1.4,1.4027,1.404,1.4059,1.4065,1.4072,1.409,1.4096,1.4126,1.4122,1.414,1.4175,1.4187,1.4198,1.4238,1.4233,1.4244,1.4263,1.428,1.4284,1.4288,1.4301,1.4305,1.4247,1.4247,1.4247,0,1.4001,1.4036,1.4041,1.4065,1.4078,1.4075,1.4101,1.4113,1.4137,1.4146,1.4138,1.4181,1.4192,1.4227,1.4236,1.4246,1.4251,1.4242,1.4283,1.4287,1.429,1.4303,1.4308,1.4248,1.4248,1.4248,1.4248,0,1.4052,1.4076,1.4095,1.4119,1.4134,1.4159,1.4167,1.4181,1.4181,1.4188,1.4217,1.4231,1.4252,1.426,1.4261,1.4295,1.4289,1.4282,1.4268,1.4297,1.4308,1.4313,1.425,1.4249,1.4249,1.4249,0,0,1.4098,1.4124,1.4131,1.4141,1.4162,1.4179,1.4203,1.4225,1.4236,1.4253,1.4272,1.4302,1.4295,1.4307,1.4308,1.4323,1.4352,1.4314,1.4315,1.432,1.4388,1.4393,1.4399,1.435,1.4351,1.4351,1.4387,0,1.4136,1.418,1.4185,1.4223,1.4244,1.4241,1.4261,1.4275,1.4282,1.43,1.4306,1.4326,1.4317,1.4324,1.4338,1.4346,1.4366,1.4343,1.4366,1.4367,1.4361,1.4405,1.441,1.4443,1.4391,1.4392,1.4393,0,1.4187,1.4205,1.4246,1.4262,1.4271,1.429,1.4309,1.4327,1.4342,1.4345,1.4358,1.4357,1.438,1.4365,1.4396,1.4381,1.439,1.4395,1.4396,1.4398,1.4381,1.4407,1.4453,1.4458,1.44,1.4399,1.4399,0,1.4214,1.4249,1.4278,1.4287,1.4307,1.432,1.4329,1.4343,1.4355,1.4371,1.4379,1.4398,1.4408,1.4421,1.4425,1.4414,1.4455,1.4441,1.4458,1.4457,1.4466,1.4465,1.4514,1.4474,1.4474,1.4474,1.4473,0,1.4256,1.4281,1.429,1.4308,1.4335,1.4339,1.4365,1.4373,1.4385,1.4403,1.4401,1.4418,1.4422,1.4439,1.4442,1.4466,1.4471,1.4473,1.4473,1.4473,1.4472,1.4479,1.4476,1.4475,1.4475,1.4474,1.4474,0,1.4292,1.4299,1.433,1.4346,1.4351,1.437,1.4383,1.4399,1.4405,1.4427,1.4432,1.4441,1.4461,1.4466,1.4489,1.4491,1.4519,1.4518,1.4515,1.4514,1.453,1.4528,1.4584,1.4591,1.4547,1.4547,1.4548,0,1.4317,1.4336,1.4355,1.4367,1.4376,1.4396,1.4408,1.4412,1.4425,1.4443,1.4456,1.4475,1.4491,1.4522,1.453,1.4547,1.4546,1.4564,1.4548,1.4546,1.4544,1.4543,1.4544,1.4567,1.4567,1.4567,1.4568,0,1.4362,1.4364,1.4383,1.4402,1.4417,1.4432,1.4447,1.4456,1.4462,1.4476,1.4496,1.4509,1.4532,1.4551,1.4568,1.4576,1.4572,1.4573,1.4577,1.4577,1.4573,1.4574,1.4522,1.4571,1.4571,1.4571,1.457,1.457,1.4393,1.4409,1.4424,1.4444,1.4455,1.4468,1.4484,1.4491,1.4509,1.4529,1.453,1.4551,1.4564,1.4587,1.4595,1.4611,1.4606,1.4613,1.4614,1.4616,1.4616,1.4571,1.4615,1.4614,1.4614,1.4614,1.4614,0,1.4436,1.4445,1.4464,1.4484,1.4499,1.4495,1.4511,1.4523,1.4543,1.4555,1.4571,1.4593,1.4611,1.462,1.4637,1.4648,1.4647,1.4652,1.4651,1.4653,1.4621,1.4615,1.4653,1.4653,1.4653,1.4653,1.4653,1.4653,1.446,1.4487,1.4491,1.4522,1.4531,1.4553,1.4561,1.4573,1.4583,1.4608,1.4623,1.4629,1.464,1.4658,1.4673,1.4675,1.4681,1.4687,1.4689,1.4659,1.4655,1.4651,1.4645,1.4689,1.4689,1.4718,1.4719,1.4719]}]]